Observations for Trim Market St
| Time | AQI | Temp °C | Hum % | Pres Pa | CO μg/m³ | H₂S μg/m³ | NO μg/m³ | NO₂ μg/m³ | O₃ μg/m³ | SO₂ μg/m³ | PM1 μg/m³ | PM2.5 μg/m³ | PM10 μg/m³ |
|---|---|---|---|---|---|---|---|---|---|---|---|---|---|
| Tuesday 25 August 2026 | |||||||||||||
| 18:47 | 3 | 19.6 | 64 | 56,936 | 0 | 0 | 1.26 | 22 | 66.38 | 0 | 4.99 | 7.28 | 10.17 |
| 18:44 | 3 | 19.7 | 64 | 57,029 | 0 | 0 | 1.12 | 21.58 | 70.22 | 0 | 4.99 | 7.8 | 11.51 |
| 18:43 | 3 | 19.8 | 64 | 57,065 | 0 | 0 | 1.11 | 17.51 | 60.23 | 0 | 4.28 | 6.82 | 10.85 |
| 18:42 | 3 | 19.9 | 64 | 57,095 | 0 | 0 | 1.12 | 21.06 | 67.26 | 0 | 6.41 | 9.79 | 13.51 |
| 18:41 | 3 | 19.9 | 63 | 57,125 | 0 | 0 | 1.01 | 15.16 | 62.4 | 0 | 6.41 | 7.82 | 10.86 |
| 18:40 | 3 | 20 | 63 | 57,160 | 0 | 0 | 0.97 | 16.2 | 61.55 | 0 | 7.84 | 9.81 | 15.53 |
| 18:39 | 3 | 20 | 63 | 57,201 | 0 | 0 | 1.06 | 17.98 | 74.06 | 0 | 5.7 | 8.34 | 11.54 |
| 18:38 | 3 | 20.1 | 63 | 57,243 | 0 | 0 | 1.07 | 26.29 | 86.74 | 0 | 5.7 | 6.86 | 10.2 |
| 18:37 | 3 | 20.1 | 63 | 57,289 | 0 | 0 | 1.08 | 19.57 | 61.19 | 0 | 4.99 | 7.36 | 10.88 |
| 18:36 | 3 | 20.2 | 63 | 57,331 | 0.01 | 0 | 1.13 | 21.93 | 70.84 | 0 | 4.99 | 7.38 | 10.21 |
| 18:35 | 3 | 20.2 | 62 | 57,375 | 0.01 | 0 | 1.2 | 24.26 | 73.07 | 0 | 6.41 | 8.38 | 12.9 |
| 18:34 | 3 | 20.3 | 62 | 57,417 | 0.02 | 0 | 1.14 | 17.11 | 64.15 | 0 | 7.13 | 8.89 | 12.91 |
| 18:33 | 3 | 20.3 | 62 | 57,449 | 0.01 | 0 | 1.17 | 20.79 | 66.36 | 0 | 4.99 | 7.9 | 10.9 |
| 18:32 | 3 | 20.3 | 62 | 57,485 | 0.02 | 0 | 1.06 | 17.09 | 69.6 | 0 | 4.99 | 6.42 | 8.88 |
| 18:31 | 3 | 20.4 | 62 | 57,516 | 0.01 | 0 | 1.03 | 16.74 | 62.75 | 0 | 5.7 | 7.92 | 10.91 |
| 18:28 | 3 | 20.5 | 61 | 57,562 | 0.05 | 0 | 1.23 | 27.11 | 61.98 | 0 | 4.28 | 6.95 | 9.56 |
| 18:27 | 3 | 20.5 | 61 | 57,576 | 0.03 | 0 | 1.23 | 17.6 | 61.71 | 0 | 5.7 | 7.46 | 10.25 |
| 18:26 | 3 | 20.5 | 61 | 57,590 | 0.02 | 0 | 1.25 | 20.01 | 65.39 | 0 | 7.13 | 10.96 | 15.01 |
| 18:25 | 3 | 20.6 | 61 | 57,601 | 0.01 | 0 | 1.12 | 14.72 | 61.77 | 0 | 5.7 | 7.47 | 10.25 |
| 18:24 | 3 | 20.6 | 61 | 57,610 | 0.02 | 0 | 1.16 | 14.85 | 61.98 | 0 | 3.56 | 5.48 | 7.53 |